Des Moines, IA

4:33 AM CST on February 23, 2018 (GMT -0600)
Des Moines International

Weather History for KDSM - July, 2013

Change the Weather History Date:

Tuesday, July 23, 2013

  Actual Average Record
Temperature  
Mean Temperature 72 °F 76 °F  
Max Temperature 79 °F 86 °F 105 °F (2012)
Min Temperature 65 °F 67 °F 52 °F (1887)
Degree Days  
Heating Degree Days 0 0  
Month to date heating degree days 0 0  
Since 1 June heating degree days 19 17  
Since 1 July heating degree days 0 0  
Cooling Degree Days 7 11  
Month to date cooling degree days 313 260  
Year to date cooling degree days 670 557  
Since 1 June cooling degree days 568 481  
Growing Degree Days 22 (Base 50)    
Moisture  
Dew Point 59 °F    
Average Humidity 66    
Maximum Humidity 84    
Minimum Humidity 48    
Precipitation  
Precipitation 0.00 in 0.14 in 2.03 in (1896)
Month to date precipitation 0.66 3.41  
Year to date precipitation 22.20 21.53  
Snow  
Snow 0.00 in 0.00 in - ()
Month to date snowfall 0.0 0.0  
Since 1 June snowfall 0.0 0.0  
Since 1 July snowfall 0.0 0.0  
Snow Depth 0.00 in    
Sea Level Pressure  
Sea Level Pressure 29.91 in    
Wind  
Wind Speed 8 mph (NNE)    
Max Wind Speed 22 mph    
Max Gust Speed 25 mph    
Visibility 10 miles    
Events      
T = Trace of Precipitation, MM = Missing Value Source: NWS Daily Summary

Daily Weather History Graph

Daily Weather History Graph

Search for Another Location

Airport or City:

Trip Planner

Search our weather history database for the weather conditions in past years. The results will help you decide how hot, cold, wet, or windy it might be!

Date:

Astronomy

Jul. 23, 2013 Rise Set
Actual Time 6:00 AM CDT 8:40 PM CDT
Civil Twilight 5:28 AM CDT 9:12 PM CDT
Nautical Twilight 4:48 AM CDT 9:52 PM CDT
Astronomical Twilight 4:02 AM CDT 10:38 PM CDT
Moon 9:07 PM CDT 7:11 AM CDT
Length of Visible Light 15h 44m
Length of Day
14h 39m
Full, 99% of the Moon is Illuminated
Jul 23
Full
Jul 29
Last Quarter
Aug 6
New
Aug 14
First Quarter
Aug 20
Full

Hourly Weather History & Observations

Time (CDT) Temp. Dew Point Humidity Pressure Visibility Wind Dir Wind Speed Gust Speed Precip Events Conditions
12:54 AM 69.1 °F 63.0 °F 81% 29.80 in 10.0 mi WNW 8.1 mph - N/A   Partly Cloudy
1:54 AM 70.0 °F 64.0 °F 81% 29.81 in 10.0 mi North 9.2 mph - N/A   Scattered Clouds
2:54 AM 70.0 °F 64.0 °F 81% 29.83 in 10.0 mi North 3.5 mph - N/A   Mostly Cloudy
3:54 AM 70.0 °F 62.1 °F 76% 29.83 in 10.0 mi NNE 9.2 mph - N/A   Scattered Clouds
4:54 AM 68.0 °F 60.1 °F 76% 29.84 in 10.0 mi North 9.2 mph - N/A   Partly Cloudy
5:54 AM 66.0 °F 60.1 °F 81% 29.88 in 10.0 mi West 4.6 mph - N/A   Scattered Clouds
6:54 AM 66.9 °F 60.1 °F 79% 29.88 in 10.0 mi NW 5.8 mph - N/A   Mostly Cloudy
7:54 AM 68.0 °F 59.0 °F 73% 29.88 in 10.0 mi North 9.2 mph - N/A   Mostly Cloudy
8:54 AM 69.1 °F 60.1 °F 73% 29.93 in 10.0 mi North 8.1 mph - N/A   Overcast
9:54 AM 71.1 °F 59.0 °F 66% 29.94 in 10.0 mi North 5.8 mph - N/A   Overcast
10:54 AM 72.0 °F 57.0 °F 59% 29.96 in 10.0 mi NNE 9.2 mph - N/A   Overcast
11:54 AM 72.0 °F 57.9 °F 61% 29.96 in 10.0 mi NE 9.2 mph - N/A   Overcast
12:54 PM 73.0 °F 55.9 °F 55% 29.95 in 10.0 mi ENE 13.8 mph - N/A   Overcast
1:54 PM 73.9 °F 55.9 °F 53% 29.91 in 10.0 mi ENE 19.6 mph 23.0 mph N/A   Overcast
2:54 PM 73.9 °F 57.0 °F 55% 29.93 in 10.0 mi NNE 11.5 mph - N/A   Overcast
3:54 PM 77.0 °F 57.0 °F 50% 29.94 in 10.0 mi ENE 3.5 mph - N/A   Scattered Clouds
4:54 PM 78.1 °F 57.9 °F 50% 29.94 in 10.0 mi East 8.1 mph - N/A   Partly Cloudy
5:54 PM 78.1 °F 57.9 °F 50% 29.92 in 10.0 mi ENE 6.9 mph - N/A   Partly Cloudy
6:54 PM 78.1 °F 57.9 °F 50% 29.92 in 10.0 mi NE 8.1 mph - N/A   Partly Cloudy
7:54 PM 75.0 °F 57.9 °F 55% 29.92 in 10.0 mi NE 9.2 mph - N/A   Partly Cloudy
8:54 PM 73.0 °F 59.0 °F 61% 29.94 in 10.0 mi North 4.6 mph - N/A   Partly Cloudy
9:54 PM 71.1 °F 55.9 °F 59% 29.97 in 10.0 mi NE 10.4 mph - N/A   Partly Cloudy
10:54 PM 69.1 °F 55.9 °F 63% 29.98 in 10.0 mi NE 6.9 mph - N/A   Clear
11:54 PM 68.0 °F 55.9 °F 65% 29.97 in 10.0 mi ENE 8.1 mph - N/A   Clear